JBU7080 KMSY-KBRO

Flight info

Callsign JBU7080
Flight time N/A
Altitude 30000
Route LFT LCH DAS PSX CRP BRO
Aircraft A21N/M-SDE2E3FGHIRWXY/LB1

Departure

Time 2026-05-08 00:55
Airport Louis Armstrong New Orleans International Airport (KMSY)

Arrival

Time N/A
Airport Brownsville South Padre Island International Airport (KBRO)
Time Latitude Longitude Altitude Speed Heading
2026-05-08 00:04 29.98707 -90.25660 16 ft 0 kts 153°
2026-05-08 00:17 29.98717 -90.25667 18 ft 0 kts 328°
2026-05-08 00:17 29.98713 -90.25664 16 ft 0 kts 152°
2026-05-08 00:18 29.98570 -90.25481 17 ft 0 kts 125°
2026-05-08 00:31 29.98582 -90.25500 16 ft 4 kts 123°
2026-05-08 00:32 29.98589 -90.25525 15 ft 4 kts 68°
2026-05-08 00:32 29.98574 -90.25549 17 ft 4 kts 37°
2026-05-08 00:32 29.98551 -90.25566 17 ft 4 kts 34°
2026-05-08 00:32 29.98547 -90.25570 17 ft 0 kts 35°
2026-05-08 00:46 29.98591 -90.25539 15 ft 15 kts 34°
2026-05-08 00:46 29.98679 -90.25464 17 ft 0 kts 37°
2026-05-08 00:51 29.98685 -90.25459 16 ft 2 kts 37°
2026-05-08 00:52 29.98700 -90.25446 16 ft 4 kts 37°
2026-05-08 00:52 29.98725 -90.25425 16 ft 6 kts 38°
2026-05-08 00:52 29.98747 -90.25375 14 ft 9 kts 69°
2026-05-08 00:52 29.98759 -90.25287 11 ft 13 kts 88°
2026-05-08 00:53 29.98780 -90.25205 9 ft 3 kts 54°
2026-05-08 00:53 29.98802 -90.25182 9 ft 5 kts 34°
2026-05-08 00:53 29.98830 -90.25167 10 ft 0 kts 20°
2026-05-08 00:54 29.98833 -90.25167 10 ft 3 kts 20°
2026-05-08 00:54 29.98917 -90.25197 13 ft 24 kts 317°
2026-05-08 00:55 29.99015 -90.25466 13 ft 53 kts 287°
2026-05-08 00:55 29.99199 -90.26216 11 ft 138 kts 287°
2026-05-08 00:55 29.99522 -90.27532 123 ft 195 kts 288°
2026-05-08 00:55 29.99898 -90.29090 620 ft 201 kts 285°
2026-05-08 00:56 30.00222 -90.30665 1119 ft 210 kts 284°
2026-05-08 00:56 30.00567 -90.32406 1487 ft 235 kts 284°
2026-05-08 00:56 30.00741 -90.34363 1901 ft 259 kts 264°
2026-05-08 00:56 30.00306 -90.36372 2565 ft 268 kts 250°
2026-05-08 00:57 29.99626 -90.38434 3398 ft 271 kts 249°
2026-05-08 00:57 29.98945 -90.40427 4302 ft 269 kts 249°
2026-05-08 00:57 29.98242 -90.42415 5178 ft 269 kts 249°
2026-05-08 00:57 29.97524 -90.44412 5994 ft 270 kts 249°
2026-05-08 00:58 29.96798 -90.46425 6774 ft 272 kts 249°
2026-05-08 00:58 29.96067 -90.48453 7513 ft 275 kts 249°
2026-05-08 00:58 29.95332 -90.50493 8269 ft 276 kts 249°
2026-05-08 00:58 29.94589 -90.52553 9021 ft 278 kts 249°
2026-05-08 00:59 29.93841 -90.54622 9770 ft 280 kts 249°
2026-05-08 00:59 29.93089 -90.56703 10458 ft 282 kts 249°
2026-05-08 00:59 29.92339 -90.58788 11185 ft 282 kts 249°
2026-05-08 00:59 29.91596 -90.60879 11936 ft 281 kts 249°
2026-05-08 01:00 29.90991 -90.63020 12542 ft 287 kts 261°
2026-05-08 01:00 29.91121 -90.65372 12891 ft 303 kts 281°
2026-05-08 01:00 29.91643 -90.67743 13508 ft 306 kts 281°
2026-05-08 01:00 29.92167 -90.70128 14160 ft 308 kts 280°
2026-05-08 01:01 29.92691 -90.72526 14787 ft 308 kts 280°
2026-05-08 01:01 29.93213 -90.74925 15404 ft 309 kts 280°
2026-05-08 01:01 29.93730 -90.77310 16019 ft 311 kts 280°
2026-05-08 01:01 29.94252 -90.79729 16630 ft 312 kts 279°
2026-05-08 01:02 29.94776 -90.82168 17248 ft 313 kts 279°
2026-05-08 01:02 29.95303 -90.84614 17870 ft 314 kts 279°
2026-05-08 01:02 29.95829 -90.87062 18457 ft 315 kts 279°
2026-05-08 01:02 29.96359 -90.89527 18971 ft 317 kts 279°
2026-05-08 01:03 29.96889 -90.92002 19460 ft 319 kts 279°
2026-05-08 01:03 29.97423 -90.94500 19959 ft 322 kts 279°
2026-05-08 01:03 29.97961 -90.97013 20446 ft 324 kts 279°
2026-05-08 01:03 29.98498 -90.99522 20932 ft 326 kts 279°
2026-05-08 01:04 29.99040 -91.02066 21408 ft 329 kts 279°
2026-05-08 01:04 29.99589 -91.04646 21891 ft 331 kts 279°
2026-05-08 01:04 30.00129 -91.07186 22360 ft 334 kts 280°
2026-05-08 01:04 30.00693 -91.09836 22840 ft 337 kts 280°
2026-05-08 01:05 30.01250 -91.12451 23311 ft 339 kts 280°
2026-05-08 01:05 30.01805 -91.15069 23748 ft 342 kts 280°
2026-05-08 01:05 30.02369 -91.17741 24144 ft 344 kts 280°
2026-05-08 01:05 30.02938 -91.20434 24559 ft 346 kts 280°
2026-05-08 01:06 30.03513 -91.23133 24991 ft 347 kts 280°
2026-05-08 01:06 30.04090 -91.25845 25412 ft 349 kts 280°
2026-05-08 01:06 30.04664 -91.28549 25835 ft 350 kts 279°
2026-05-08 01:06 30.05249 -91.31307 26250 ft 352 kts 279°
2026-05-08 01:07 30.05670 -91.33301 26543 ft 353 kts 279°
2026-05-08 01:07 30.06239 -91.35999 26939 ft 354 kts 279°
2026-05-08 01:07 30.06821 -91.38767 27321 ft 356 kts 279°
2026-05-08 01:07 30.07407 -91.41555 27710 ft 358 kts 279°
2026-05-08 01:08 30.07993 -91.44354 28091 ft 359 kts 279°
2026-05-08 01:08 30.08579 -91.47165 28468 ft 361 kts 279°
2026-05-08 01:08 30.09167 -91.49986 28840 ft 362 kts 279°
2026-05-08 01:08 30.09759 -91.52821 29196 ft 364 kts 279°
2026-05-08 01:09 30.10355 -91.55678 29539 ft 366 kts 279°
2026-05-08 01:09 30.10953 -91.58538 29963 ft 367 kts 279°
2026-05-08 01:09 30.11553 -91.61403 30309 ft 367 kts 279°
2026-05-08 01:09 30.12156 -91.64278 30612 ft 369 kts 279°
2026-05-08 01:10 30.12756 -91.67148 30897 ft 371 kts 279°
2026-05-08 01:10 30.13356 -91.70029 31178 ft 372 kts 279°
2026-05-08 01:10 30.13962 -91.72945 31455 ft 374 kts 279°
2026-05-08 01:10 30.14568 -91.75873 31724 ft 376 kts 278°
2026-05-08 01:11 30.15174 -91.78818 31992 ft 378 kts 278°
2026-05-08 01:11 30.15784 -91.81779 32264 ft 379 kts 278°
2026-05-08 01:11 30.16395 -91.84748 32530 ft 381 kts 278°
2026-05-08 01:11 30.17012 -91.87740 32780 ft 383 kts 278°
2026-05-08 01:12 30.17632 -91.90746 33041 ft 385 kts 278°
2026-05-08 01:12 30.18253 -91.93761 33293 ft 387 kts 278°
2026-05-08 01:12 30.18877 -91.96797 33549 ft 388 kts 277°
2026-05-08 01:12 30.19268 -91.99865 33801 ft 385 kts 269°
2026-05-08 01:13 30.19231 -92.02950 33995 ft 384 kts 264°
2026-05-08 01:13 30.18945 -92.09124 34035 ft 384 kts 264°
2026-05-08 01:14 30.18678 -92.15296 34034 ft 384 kts 264°
2026-05-08 01:14 30.18423 -92.21248 34036 ft 384 kts 264°
2026-05-08 01:15 30.18151 -92.27372 34037 ft 384 kts 264°
2026-05-08 01:15 30.17873 -92.33528 34037 ft 384 kts 264°
2026-05-08 01:16 30.17586 -92.39752 34037 ft 394 kts 264°
2026-05-08 01:16 30.17287 -92.46168 34041 ft 404 kts 264°
2026-05-08 01:17 30.16987 -92.52645 34040 ft 406 kts 264°
2026-05-08 01:17 30.16689 -92.59185 34041 ft 407 kts 264°
2026-05-08 01:18 30.16379 -92.65714 34039 ft 407 kts 264°
2026-05-08 01:18 30.16063 -92.72198 34051 ft 406 kts 264°
2026-05-08 01:19 30.15742 -92.78723 34060 ft 407 kts 264°
2026-05-08 01:19 30.15418 -92.85261 34056 ft 407 kts 264°
2026-05-08 01:20 30.15094 -92.91787 34060 ft 406 kts 264°
2026-05-08 01:20 30.14774 -92.98281 34052 ft 406 kts 264°
2026-05-08 01:21 30.14444 -93.04802 34055 ft 406 kts 264°
2026-05-08 01:21 30.14175 -93.11322 34052 ft 408 kts 269°
2026-05-08 01:22 30.14419 -93.17875 34039 ft 408 kts 269°
2026-05-08 01:22 30.14662 -93.24417 34045 ft 408 kts 269°
2026-05-08 01:23 30.14892 -93.30937 34054 ft 408 kts 269°
2026-05-08 01:23 30.15127 -93.37484 34054 ft 408 kts 269°
2026-05-08 01:24 30.15360 -93.44031 34063 ft 408 kts 269°
2026-05-08 01:24 30.15583 -93.50593 34054 ft 408 kts 269°
2026-05-08 01:25 30.15799 -93.57101 34050 ft 408 kts 269°
2026-05-08 01:25 30.16020 -93.63647 34046 ft 408 kts 269°
2026-05-08 01:26 30.16238 -93.70198 34047 ft 407 kts 269°
2026-05-08 01:26 30.16452 -93.76746 34056 ft 407 kts 269°
2026-05-08 01:27 30.16656 -93.83281 34068 ft 407 kts 269°
2026-05-08 01:27 30.16858 -93.89828 34055 ft 407 kts 269°
2026-05-08 01:28 30.17066 -93.96327 34061 ft 407 kts 269°
2026-05-08 01:28 30.17267 -94.02880 34035 ft 407 kts 269°
2026-05-08 01:29 30.17460 -94.09425 34035 ft 407 kts 269°
2026-05-08 01:29 30.17654 -94.15928 34036 ft 407 kts 269°
2026-05-08 01:30 30.17843 -94.22480 34037 ft 407 kts 269°
2026-05-08 01:30 30.18023 -94.29017 34046 ft 407 kts 269°
2026-05-08 01:31 30.18206 -94.35557 34042 ft 407 kts 269°
2026-05-08 01:31 30.18387 -94.42099 34041 ft 407 kts 269°
2026-05-08 01:32 30.18559 -94.48596 34038 ft 407 kts 269°
2026-05-08 01:32 30.18726 -94.55140 34032 ft 407 kts 269°
2026-05-08 01:33 30.18464 -94.61626 34036 ft 403 kts 256°
2026-05-08 01:33 30.16202 -94.67526 34034 ft 406 kts 237°
2026-05-08 01:34 30.12356 -94.72367 34034 ft 411 kts 230°
2026-05-08 01:34 30.09033 -94.76301 34036 ft 411 kts 230°
2026-05-08 01:35 30.05046 -94.81038 34034 ft 411 kts 230°
2026-05-08 01:35 30.00398 -94.86556 34019 ft 412 kts 230°
2026-05-08 01:36 29.97043 -94.90517 34019 ft 412 kts 230°
2026-05-08 01:36 29.93063 -94.95220 34027 ft 413 kts 230°
2026-05-08 01:37 29.89054 -94.99959 34038 ft 413 kts 230°
2026-05-08 01:37 29.85043 -95.04699 34037 ft 413 kts 230°
2026-05-08 01:38 29.81027 -95.09432 34035 ft 413 kts 230°
2026-05-08 01:38 29.77048 -95.14108 34028 ft 413 kts 230°
2026-05-08 01:39 29.73027 -95.18828 34033 ft 413 kts 230°
2026-05-08 01:39 29.69002 -95.23547 34010 ft 413 kts 230°
2026-05-08 01:40 29.64974 -95.28268 34018 ft 414 kts 230°
2026-05-08 01:40 29.60955 -95.32969 34026 ft 414 kts 230°
2026-05-08 01:41 29.56910 -95.37692 34037 ft 414 kts 230°
2026-05-08 01:41 29.52872 -95.42410 34054 ft 413 kts 230°
2026-05-08 01:42 29.48882 -95.47067 34054 ft 413 kts 230°
2026-05-08 01:42 29.44833 -95.51780 34054 ft 413 kts 230°
2026-05-08 01:43 29.40790 -95.56490 34023 ft 413 kts 230°
2026-05-08 01:43 29.36770 -95.61162 34020 ft 414 kts 229°
2026-05-08 01:44 29.32706 -95.65871 34014 ft 415 kts 229°
2026-05-08 01:44 29.28637 -95.70593 34018 ft 416 kts 230°
2026-05-08 01:45 29.24596 -95.75281 33996 ft 415 kts 229°
2026-05-08 01:45 29.22576 -95.77613 33429 ft 410 kts 229°
2026-05-08 01:45 29.20578 -95.79920 32932 ft 404 kts 229°
2026-05-08 01:45 29.18607 -95.82189 32553 ft 397 kts 229°
2026-05-08 01:46 29.16675 -95.84419 32124 ft 393 kts 229°
2026-05-08 01:46 29.14753 -95.86639 31637 ft 390 kts 229°
2026-05-08 01:46 29.12854 -95.88835 31149 ft 387 kts 229°
2026-05-08 01:46 29.10967 -95.91017 30630 ft 384 kts 229°
2026-05-08 01:47 29.09087 -95.93186 30167 ft 381 kts 229°
2026-05-08 01:47 29.07248 -95.95304 29635 ft 379 kts 229°
2026-05-08 01:47 29.05390 -95.97442 29060 ft 376 kts 229°
2026-05-08 01:48 29.01716 -96.01658 27950 ft 371 kts 229°
2026-05-08 01:48 28.99901 -96.03739 27413 ft 369 kts 229°
2026-05-08 01:48 28.98100 -96.05810 26890 ft 366 kts 229°
2026-05-08 01:48 28.96333 -96.07843 26378 ft 364 kts 229°
2026-05-08 01:49 28.94556 -96.09893 25894 ft 362 kts 228°
2026-05-08 01:49 28.92781 -96.11934 25405 ft 360 kts 228°
2026-05-08 01:49 28.91017 -96.13957 24942 ft 359 kts 228°
2026-05-08 01:49 28.89284 -96.15938 24425 ft 354 kts 228°
2026-05-08 01:50 28.87549 -96.17919 23660 ft 351 kts 228°
2026-05-08 01:50 28.85830 -96.19884 22690 ft 351 kts 227°
2026-05-08 01:50 28.84075 -96.21897 21583 ft 366 kts 227°
2026-05-08 01:50 28.82248 -96.23994 20470 ft 378 kts 227°
2026-05-08 01:51 28.80367 -96.26149 19309 ft 390 kts 227°
2026-05-08 01:51 28.78425 -96.28370 18193 ft 399 kts 227°
2026-05-08 01:51 28.76456 -96.30618 17229 ft 401 kts 227°
2026-05-08 01:51 28.74563 -96.32924 16341 ft 394 kts 229°
2026-05-08 01:52 28.72785 -96.35244 14845 ft 386 kts 231°
2026-05-08 01:52 28.71099 -96.37551 13331 ft 382 kts 232°
2026-05-08 01:52 28.69451 -96.39847 12389 ft 375 kts 231°
2026-05-08 01:52 28.67804 -96.42133 12385 ft 371 kts 231°
2026-05-08 01:53 28.66236 -96.44280 12373 ft 337 kts 231°
2026-05-08 01:53 28.64749 -96.46288 12301 ft 327 kts 231°
2026-05-08 01:53 28.63270 -96.48268 12120 ft 331 kts 231°
2026-05-08 01:53 28.61758 -96.50285 12123 ft 336 kts 230°
2026-05-08 01:54 28.60234 -96.52313 12121 ft 337 kts 230°
2026-05-08 01:54 28.58722 -96.54322 12120 ft 338 kts 230°
2026-05-08 01:54 28.57189 -96.56346 12113 ft 338 kts 228°
2026-05-08 01:54 28.55365 -96.57997 12109 ft 341 kts 210°
2026-05-08 01:55 28.53141 -96.58973 12114 ft 343 kts 200°
2026-05-08 01:55 28.50862 -96.59799 12114 ft 343 kts 200°
2026-05-08 01:55 28.48583 -96.60610 12109 ft 344 kts 200°
2026-05-08 01:55 28.46297 -96.61419 12109 ft 344 kts 200°
2026-05-08 01:56 28.44066 -96.62208 12110 ft 344 kts 200°
2026-05-08 01:56 28.41799 -96.63012 12111 ft 345 kts 200°
2026-05-08 01:56 28.39427 -96.63862 12113 ft 369 kts 200°
2026-05-08 01:56 28.36914 -96.64767 12115 ft 391 kts 200°
2026-05-08 01:57 28.34255 -96.65724 12119 ft 408 kts 199°
2026-05-08 01:57 28.31514 -96.66706 12119 ft 413 kts 199°
2026-05-08 01:57 28.28762 -96.67684 12119 ft 415 kts 199°
2026-05-08 01:57 28.26011 -96.68660 12120 ft 415 kts 199°
2026-05-08 01:58 28.23303 -96.69619 12118 ft 415 kts 199°
2026-05-08 01:58 28.20495 -96.70614 12115 ft 415 kts 199°
2026-05-08 01:58 28.17747 -96.71593 12116 ft 414 kts 199°
2026-05-08 01:58 28.15006 -96.72568 12116 ft 413 kts 199°
2026-05-08 01:59 28.12254 -96.73547 12117 ft 413 kts 199°
2026-05-08 01:59 28.09514 -96.74523 12117 ft 413 kts 199°
2026-05-08 01:59 28.06773 -96.75502 12117 ft 413 kts 199°
2026-05-08 01:59 28.04067 -96.76466 12117 ft 413 kts 199°
2026-05-08 02:00 28.01328 -96.77439 12109 ft 413 kts 199°
2026-05-08 02:00 27.98595 -96.78409 12116 ft 413 kts 199°
2026-05-08 02:00 27.95855 -96.79377 12116 ft 413 kts 199°
2026-05-08 02:00 27.93111 -96.80345 12115 ft 413 kts 199°
2026-05-08 02:01 27.90378 -96.81310 12126 ft 412 kts 199°
2026-05-08 02:01 27.87629 -96.82283 12122 ft 412 kts 199°
2026-05-08 02:01 27.84898 -96.83250 12128 ft 411 kts 199°
2026-05-08 02:01 27.82171 -96.84216 12126 ft 411 kts 199°
2026-05-08 02:02 27.79435 -96.85187 12135 ft 412 kts 199°
2026-05-08 02:02 27.76688 -96.86164 12135 ft 414 kts 199°
2026-05-08 02:02 27.73946 -96.87137 12138 ft 414 kts 199°
2026-05-08 02:02 27.71200 -96.88108 12137 ft 414 kts 199°
2026-05-08 02:03 27.68457 -96.89075 12132 ft 414 kts 199°
2026-05-08 02:03 27.65697 -96.90047 12131 ft 414 kts 199°
2026-05-08 02:03 27.62948 -96.91012 12130 ft 414 kts 199°
2026-05-08 02:03 27.60194 -96.91977 12125 ft 414 kts 199°
2026-05-08 02:04 27.57475 -96.92931 12127 ft 414 kts 199°
2026-05-08 02:04 27.54720 -96.93897 12124 ft 414 kts 199°
2026-05-08 02:04 27.51968 -96.94861 12122 ft 414 kts 199°
2026-05-08 02:04 27.49216 -96.95826 12119 ft 414 kts 199°
2026-05-08 02:05 27.46469 -96.96791 12119 ft 414 kts 199°
2026-05-08 02:05 27.43716 -96.97760 12118 ft 414 kts 199°
2026-05-08 02:05 27.40969 -96.98727 12116 ft 414 kts 199°
2026-05-08 02:05 27.38219 -96.99697 12113 ft 414 kts 199°
2026-05-08 02:06 27.35470 -97.00662 12112 ft 414 kts 199°
2026-05-08 02:06 27.32713 -97.01625 12112 ft 414 kts 199°
2026-05-08 02:06 27.29956 -97.02587 12112 ft 414 kts 199°
2026-05-08 02:06 27.27244 -97.03533 12105 ft 413 kts 199°
2026-05-08 02:07 27.24501 -97.04491 12113 ft 411 kts 199°
2026-05-08 02:07 27.21768 -97.05445 12113 ft 411 kts 199°
2026-05-08 02:07 27.19036 -97.06400 12125 ft 411 kts 199°
2026-05-08 02:07 27.16305 -97.07358 12124 ft 411 kts 199°
2026-05-08 02:08 27.13572 -97.08316 12133 ft 411 kts 199°
2026-05-08 02:08 27.10873 -97.09260 12135 ft 411 kts 199°
2026-05-08 02:08 27.08103 -97.10227 12148 ft 411 kts 199°
2026-05-08 02:08 27.05382 -97.11172 12148 ft 411 kts 198°
2026-05-08 02:09 27.02638 -97.12124 12159 ft 411 kts 199°
2026-05-08 02:09 26.99909 -97.13074 12162 ft 411 kts 198°
2026-05-08 02:09 26.97212 -97.14013 12170 ft 411 kts 198°
2026-05-08 02:09 26.94479 -97.14963 12171 ft 412 kts 198°
2026-05-08 02:10 26.92249 -97.15742 12169 ft 412 kts 198°
2026-05-08 02:10 26.91020 -97.16103 12201 ft 409 kts 191°
2026-05-08 02:10 26.88151 -97.16245 11734 ft 414 kts 187°
2026-05-08 02:10 26.85385 -97.16931 11721 ft 406 kts 199°
2026-05-08 02:11 26.82712 -97.17988 11747 ft 409 kts 200°
2026-05-08 02:11 26.80020 -97.19041 11769 ft 409 kts 200°
2026-05-08 02:11 26.77328 -97.20079 11776 ft 410 kts 200°
2026-05-08 02:11 26.74628 -97.21110 11797 ft 410 kts 200°
2026-05-08 02:12 26.71928 -97.22143 11804 ft 410 kts 200°
2026-05-08 02:12 26.69222 -97.23183 11824 ft 410 kts 200°
2026-05-08 02:12 26.66541 -97.24220 11822 ft 409 kts 200°
2026-05-08 02:12 26.63905 -97.25243 11815 ft 389 kts 200°
2026-05-08 02:13 26.61422 -97.26206 11815 ft 367 kts 200°
2026-05-08 02:13 26.59085 -97.27113 11813 ft 346 kts 200°
2026-05-08 02:13 26.56869 -97.27972 11812 ft 329 kts 200°
2026-05-08 02:13 26.54707 -97.28809 11806 ft 328 kts 200°
2026-05-08 02:14 26.52592 -97.29628 11804 ft 326 kts 200°
2026-05-08 02:14 26.50442 -97.30460 11803 ft 326 kts 200°
2026-05-08 02:14 26.48295 -97.31290 11804 ft 327 kts 200°
2026-05-08 02:14 26.46155 -97.32115 11804 ft 325 kts 200°
2026-05-08 02:15 26.44014 -97.32940 11800 ft 326 kts 200°
2026-05-08 02:15 26.41862 -97.33767 11800 ft 326 kts 200°
2026-05-08 02:15 26.39721 -97.34590 11800 ft 326 kts 200°
2026-05-08 02:15 26.37570 -97.35420 11797 ft 327 kts 200°
2026-05-08 02:16 26.35441 -97.36243 11800 ft 326 kts 200°
2026-05-08 02:16 26.33290 -97.37074 11800 ft 325 kts 199°
2026-05-08 02:16 26.31148 -97.37899 11773 ft 324 kts 199°
2026-05-08 02:16 26.29073 -97.38698 11188 ft 309 kts 199°
2026-05-08 02:17 26.27061 -97.39474 10353 ft 304 kts 199°
2026-05-08 02:17 26.25131 -97.40216 9774 ft 292 kts 199°
2026-05-08 02:17 26.23251 -97.40938 9213 ft 279 kts 199°
2026-05-08 02:17 26.21437 -97.41634 8502 ft 275 kts 199°
2026-05-08 02:18 26.19637 -97.42327 7753 ft 273 kts 199°
2026-05-08 02:18 26.17813 -97.42859 6926 ft 273 kts 185°
2026-05-08 02:18 26.15954 -97.42726 5960 ft 267 kts 166°
2026-05-08 02:18 26.14211 -97.42014 4691 ft 269 kts 156°
2026-05-08 02:19 26.12519 -97.41129 3305 ft 275 kts 151°
2026-05-08 02:19 26.10790 -97.40261 2355 ft 266 kts 163°
2026-05-08 02:19 26.09069 -97.40182 2074 ft 239 kts 186°
2026-05-08 02:19 26.07630 -97.40743 2189 ft 217 kts 205°
2026-05-08 02:20 26.06425 -97.41743 2247 ft 215 kts 221°
2026-05-08 02:20 26.05671 -97.42459 2123 ft 215 kts 216°
2026-05-08 02:20 26.04067 -97.43756 1904 ft 212 kts 214°
2026-05-08 02:20 26.03289 -97.44424 1806 ft 212 kts 216°
2026-05-08 02:21 26.02144 -97.45393 1732 ft 211 kts 213°
2026-05-08 02:21 26.00915 -97.46282 1608 ft 207 kts 203°
2026-05-08 02:21 25.99684 -97.46736 1400 ft 178 kts 186°
2026-05-08 02:21 25.98475 -97.46731 1178 ft 170 kts 163°
2026-05-08 02:22 25.97338 -97.46286 996 ft 183 kts 151°
2026-05-08 02:22 25.96252 -97.45798 787 ft 155 kts 153°
2026-05-08 02:22 25.95309 -97.45376 564 ft 141 kts 151°
2026-05-08 02:22 25.94394 -97.44920 442 ft 152 kts 149°
2026-05-08 02:23 25.93468 -97.44408 488 ft 138 kts 150°
2026-05-08 02:23 25.92705 -97.43862 337 ft 128 kts 136°
2026-05-08 02:23 25.91938 -97.43310 296 ft 131 kts 147°
2026-05-08 02:23 25.91167 -97.42886 62 ft 125 kts 144°
2026-05-08 02:24 25.90450 -97.42279 214 ft 120 kts 130°
2026-05-08 02:24 25.89868 -97.41651 42 ft 127 kts 130°
2026-05-08 02:24 25.89334 -97.40996 720 ft 121 kts 120°
2026-05-08 02:24 25.88654 -97.40141 846 ft 176 kts 140°
2026-05-08 02:25 25.87363 -97.39772 1016 ft 210 kts 182°
2026-05-08 02:25 25.86120 -97.40557 1249 ft 197 kts 235°
2026-05-08 02:25 25.85964 -97.41815 1234 ft 151 kts 302°
2026-05-08 02:25 25.86717 -97.42407 917 ft 131 kts 348°
2026-05-08 02:26 25.87588 -97.42608 648 ft 125 kts 357°
2026-05-08 02:26 25.88431 -97.42753 400 ft 120 kts 355°
2026-05-08 02:26 25.89304 -97.42860 305 ft 124 kts 358°
2026-05-08 02:26 25.90116 -97.42916 159 ft 116 kts
2026-05-08 02:27 25.91007 -97.42908 49 ft 126 kts